Погода Нарьян-Мар

Погода Нарьян-Мар : погода сейчас, прогноз погоды и архив. Всё, что Вы хотите узнать о погоде Нарьян-Мар!

Хотите узнать прогноз погоды Нарьян-Мар? Тогда Вам сюда: Погода Нарьян-Мар

Поиск расширенной информации на нашем сайте:

Другие новости

Новости СМИ2

Главная страница сайта

Новости сайта

03.07.2017

Напоминаем, что на нашем специализированном сайте Метеоцентр.Азия вы можете получить высокодетализированные автоматические прогнозы погоды по пунктам России, СНГ и мира в авиационном формате (включающие направление и скорость ветра, видимость, явления погоды, количество и форму облачности, нижнюю и верхнюю границу облачности).


Погода Нарьян-Мар - сегодня

Время (UTC), дата Ветер
(°,м/с) 
Видим.   Явления Облачность Т
(°С)
Тd
(°С)
f(%) Тe
(°С)
Pmin
(гПа)
dP
(гПа)
Po
(мм)
O2
(г/м3)
Тmin Tmax R s Состояние
почвы
15 17.09.17 310 (СЗ) 10 км  слаб. морось  10/10 180 м 
[St]
+6.6 +5.6 93 +5  1002.5  1.6  751  295    +8.8  0.0     
21 17.09.17 290 (З) 20000 м  в посл. час ливневой дождь{морось}  10/10 270 м 
[St]
+5.7 +4.5 92 +4  1004.8  1.1  753  296           
03 18.09.17 290 (З) 4000 м  слаб. морось  10/10 210 м 
[St]
+5.4 +4.6 95 +3  1006.9  0.6  754  297  +5.2    0.1     
09 18.09.17 330 (СЗ) 20000 м  {ливн. осадки, морось}  10/10 600 м 
[Sc]
+6.4 +4.3 86 +6  1010.4  1.9  757  297           
15 18.09.17 050 (СВ) 20000 м  в посл. час ливневой дождь  10/10 450 м кучево-дожд. 
[Cb calv]
+5.2 +4 92 +4  1014.9  2.4  760  300    +6.9  0.7     
18 18.09.17 030 (СВ) 20000 м  {ливн. осадки}  6/6 1140 м 
[Sc]
+3.8 +2.3 90 +3  1017.1  2.2  762  302           
21 18.09.17 060 (СВ) 20000 м    6/6 800 м 
[Sc]
+1.6 +0.6 93 +1  1019  1.9  763  306           
00 19.09.17 060 (СВ) 20000 м    8/8 180 м 
[St]
+1.7 +0.8 94 +1  1020.7  1.7  764  306           
03 19.09.17 050 (СВ) 20000 м    9/8 1380 м средняя 
[Sc|Ac trans]
+4 +3 93 +4  1021.2  0.6  765  303  +1         
06 19.09.17 060 (СВ) 20000 м    8/6 420 м средняя 
[Cu Sc|Ac trans]
+4.6 +2.8 88 +3  1022.1  0.8  766  303           
09 19.09.17 070 (В) 20000 м    8/6 570 м средняя 
[Cu hum|Ac trans]
+6.8 +3.7 81 +5  1022.1  766  300           
12 19.09.17 050 (СВ) 20000 м    8/6 1200 м средняя 
[Sc|Ac trans]
+7 +3.1 76 +6  1021.5  -0.6  765  300           
15 19.09.17 080 (В) 20000 м    10/10 1000 м 
[Sc]
+6.2 +2.5 77 +5  1021.6  765  301    +7.1       
18 19.09.17 060 (СВ) 20000 м    10/10 1300 м 
[Sc]
+5.3 +3.1 86 +4  1021.6  765  302           
21 19.09.17 060 (СВ) 20000 м    8/3 1000 м средняя 
[Sc|Ac trans]
+1.2 +0 92 +1  1021.7  0.1  765  307           
00 20.09.17 030 (СВ) 20000 м    4/0 средняя 
[Ac lent]
-0.1 -0.9 94 -1  1022.2  0.5  766  309           
03 20.09.17 050 (СВ) 0200 м  туман  ?/?  
+0 -0.6 96 -2  1023.7  1.5  767  309  -0.2         
06 20.09.17 040 (СВ) 4000 м  дымка{туман}  10/10 150 м 
[St]
+1.4 +0.7 95 -1  1025.1  1.4  768  308           
09 20.09.17 020 (С) 20000 м    8/6 300 м верхняя 
[St|Ci fib]
+5.7 +2.7 81 +4  1026  0.9  768  303           
12 20.09.17 020 (С) 5-10{10}  20000 м    9/9 420 м 
[Sc]
+5.2 +2 80 +3  1027.4  1.5  770  304           
15 20.09.17 010 (С) 4{10}  20000 м    10/10 420 м 
[Sc]
+4.2 +1.2 81 +2  1029  1.5  771  306    +7.3       
18 20.09.17 340 (С) 20000 м    9/9 630 м 
[Sc]
+3.3 +0.8 84 +4  1030  771  307           
21 20.09.17 310 (СЗ) 20000 м    9/9 480 м 
[Sc]
+4.3 +2.7 89 +3  1030.4  0.4  772  306           
00 21.09.17 320 (СЗ) 20000 м    9/4 300 м средняя 
[Sc|Ac trans]
+5 +3.7 91 +5  1031.3  0.9  772  305           
03 21.09.17 320 (СЗ) 20000 м    10/10 270 м 
[St]
+5.5 +4.3 92 +4  1032.1  0.9  773  305  +3.3         
Время (UTC), дата Ветер
(°,м/с) 
Видим.   Явления Облачность Т
(°С)
Тd
(°С)
f(%) Тe
(°С)
Pmin
(гПа)
dP
(гПа)
Po
(мм)
O2
(г/м3)
Тmin Tmax R s Состояние
почвы

Для получения пояснительной информации подведите курсор к названию столбца.

ПОГОДА Нарьян-Мар - архив

Всё, что Вы хотите узнать о погоде Нарьян-Мар - удобно и подробно!

Выберите нужную дату (начиная с 1 января 2015* года) и нажмите кнопку "Найти".
Будут отображены архивные сводки погоды по пункту Нарьян-Мар, начиная с указанной даты.


Отображать данные в формате CSV (для использования в таблицах Excel)


Внимание! Наш архив погоды предназначен исключительно для личного некоммерческого использования в познавательных целях. Если Вам необходимы официальные справки о состоянии погоды (для производственных, юридических, коммерческих и т.п. целей), обращайтесь в органы Росгидромета.

*Примечание: данная дата относится к архиву по метеостанциям СССР (Россия, СНГ, Балтия).
Архив по метеостанциям Зарубежной Европы и Азии (кроме Китая) хранится 10 дней, по другим регионам земного шара (Китай, Африка, Америка, Австралия, Океания) - 1 день.

Нарьян-Мар - район местоположения метеостанции


Название, широта, долгота, высота метеостанции:
Нарьян-Мар 67.6°ш. 53°д. 12 м над ур. моря [Российская Федерация]

Дополнительная информация

В oтличие oт бoльшинства пoгoдных сайтoв мы публикуем пoдрoбную метеoинфoрмацию в детальнoм прoфессиoнальнoм фoрмате.

Характеристики температуры и влажнoсти вoздуха измеряются на высoте 2 м в тени вдали oт зданий и деревьев.
Скoрoсть ветра измеряется на высoте 10 м (на урoвне рoста челoвека скoрoсть ветра ниже в 1.5-2 раза). Если метеoстанция нахoдится в гoрoде или в лесу, тo скoрoсть ветра занижена на 2-4 м/с пo сравнению с oткрытым местoм. Скoрoсть ветра над акватoриями крупных рек и oзёр, а также на вершинах хoлмoв на 2-5 м/с выше, чем в oбычных услoвиях.
Атмoсфернoе давление в разных тoчках местнoсти мoжет значительнo oтличаться oт давления на метеoстанции, в зависимoсти oт услoвий рельефа (при пoдъёме на 10 м давление пoнижается примернo на 1 мм рт.ст.).